Location: ActonStarParty
(42.4766°N, 71.4538°W)
Time: 06:41:09
(UTC-04:00)

ATLAS 2AS CENTAUR R/B - Pass Details

Date: 19 April 2018
Orbit: 913 x 1299 km, 63.7° (Epoch: 14 September)

Event Time Altitude Azimuth Distance (km) Brightness Sun altitude
Rises 20:14:01 0° 325° (NW) 4,281 7.0 -8.1°
Reaches altitude 10° 20:17:01 10° 330° (NNW) 3,289 6.2 -8.6°
Maximum altitude 20:24:47 52° 46° (NE) 1,500 3.4 -9.9°
Enters shadow 20:31:14 13° 119° (ESE) 2,817 4.2 -10.9°
